Home > Weather > Piraeus > Past weeks

Flag for Greece Weather for the Past 2 Weeks in Piraeus, Greece

Now
70 °F

Scattered clouds.


Feels Like: 70 °F
Forecast: 55 / 65 °F
Wind: 12 mph from West

Location: Elefsis Airport

Current Time: May 4, 2016 at 3:00:59 PM

Latest Report: May 4, 2016 at 1:50 PM


Visibility: N/A

Pressure: 29.74 "Hg

Humidity: 31%

Dew Point: 37 °F

Location of PiraeusLocation

Historic Weather in Piraeus — Graph

°F

Piraeus Temperature Yesterday

Maximum temperature yesterday: 68 °F (at 2:50 PM)
Minimum temperature yesterday: 50 °F (at 5:50 AM)
Average temperature yesterday: 60 °F

High & Low Weather Summary for the Past Weeks

 TemperatureHumidityPressure
High84 °F (Apr 19, 1:50 PM)88% (May 2, 8:50 PM)30.27 "Hg (May 2, 8:50 PM)
Low50 °F (May 3, 5:50 AM)18% (Apr 22, 12:50 PM)29.50 "Hg (Apr 24, 6:20 PM)
Average66 °F46%29.87 "Hg
* Reported Apr 19 1:50 PM — May 4 1:50 PM, Piraeus, Weather by CustomWeather, © 2016

Note: Actual official high and low records may vary slightly from our data, if they occured in-between our weather recording intervals... More about our weather records

Advertising

Piraeus Weather History for the Previous 24 Hours

Scroll right to see more
 ConditionsComfort  
Time TempWeatherWind HumidityBarometerVisibility
1:50 PM
Wed, May 4
70 °FScattered clouds.12 mph31%29.74 "HgN/A
1:20 PM70 °FScattered clouds.8 mph31%29.74 "HgN/A
12:50 PM70 °FScattered clouds.14 mph31%29.74 "HgN/A
12:20 PM70 °FScattered clouds.10 mph31%29.74 "HgN/A
11:50 AM72 °FPassing clouds.6 mph31%29.74 "HgN/A
10:50 AM70 °FPassing clouds.8 mph33%29.74 "HgN/A
9:50 AM68 °FPassing clouds.8 mph33%29.71 "HgN/A
9:20 AM68 °FPassing clouds.8 mph33%29.71 "HgN/A
8:50 AM66 °FPassing clouds.5 mph43%29.71 "HgN/A
7:50 AM61 °FPartly sunny.No wind55%29.71 "HgN/A
7:20 AM61 °FPassing clouds.7 mph52%29.71 "HgN/A
6:50 AM57 °FPassing clouds.5 mph63%29.71 "HgN/A
6:20 AM57 °FPassing clouds.3 mph63%29.71 "HgN/A
5:50 AM57 °FPassing clouds.3 mph59%29.71 "HgN/A
5:20 AM55 °FPassing clouds.No wind63%29.71 "HgN/A
4:50 AM54 °FPassing clouds.2 mph72%29.71 "HgN/A
4:20 AM55 °FPassing clouds.3 mph67%29.71 "HgN/A
3:50 AM55 °FPassing clouds.5 mph67%29.68 "HgN/A
3:20 AM55 °FPassing clouds.5 mph67%29.68 "HgN/A
2:50 AM55 °FPassing clouds.5 mph63%29.68 "HgN/A
2:20 AM57 °FPassing clouds.5 mph59%29.68 "HgN/A
1:50 AM55 °FPassing clouds.6 mph67%29.68 "HgN/A
1:20 AM55 °FPassing clouds.7 mph63%29.68 "HgN/A
12:20 AM55 °FPassing clouds.3 mph63%29.68 "HgN/A
11:20 PM
Tue, May 3
57 °FPassing clouds.5 mph59%29.68 "HgN/A
10:50 PM57 °FPassing clouds.5 mph59%29.68 "HgN/A
10:20 PM57 °FPassing clouds.6 mph59%29.68 "HgN/A
9:50 PM57 °FPassing clouds.3 mph59%29.68 "HgN/A
9:20 PM59 °FPassing clouds.3 mph55%29.68 "HgN/A
8:50 PM59 °FScattered clouds.3 mph55%29.68 "HgN/A
8:20 PM63 °FScattered clouds.6 mph49%29.65 "HgN/A
7:50 PM63 °FBroken clouds.8 mph49%29.65 "HgN/A
7:20 PM66 °FBroken clouds.6 mph43%29.65 "HgN/A
6:50 PM64 °FBroken clouds.5 mph46%29.65 "HgN/A
6:20 PM64 °FBroken clouds.5 mph46%29.68 "HgN/A
5:50 PM64 °FBroken clouds.7 mph46%29.68 "HgN/A
5:20 PM66 °FBroken clouds.13 mph43%29.68 "HgN/A
4:50 PM68 °FBroken clouds.13 mph38%29.68 "HgN/A
4:20 PM66 °FBroken clouds.9 mph43%29.68 "HgN/A
3:50 PM68 °FBroken clouds.12 mph40%29.68 "HgN/A
Weather by CustomWeather, © 2016

See weather overviewHow to use our weather pages